Data for 11/06/2016

Time Sea-Level Adjusted Pressure Absolute Pressure Temperature Relative Humidity Dew Point   
(mb) (inHg) (mb) (inHg) (C) (F) (%) (C) (F)
00:05 1016 30 845 24.95 6.3 43.3 36 -7.8 18
00:10 1016 30 845 24.95 6.2 43.1 35 -8.3 17.1
00:15 1016 30 845 24.95 6.6 43.8 33 -8.6 16.5
00:20 1016 30 845 24.95 6.9 44.4 33 -8.2 17.3
00:25 1016 30 845 24.95 6.6 43.8 34 -8.2 17.2
00:30 1016 30 845 24.95 6.4 43.6 34 -8.4 16.9
00:35 1016 30 845 24.95 6.5 43.8 33 -8.7 16.3
00:40 1016 30 845 24.95 7.2 45 31 -9 15.9
00:45 1016 30 845 24.95 7.7 45.8 31 -8.6 16.5
00:50 1016 30 845 24.95 7.5 45.4 31 -8.5 16.7
00:55 1016 30 845 24.95 7.1 44.8 32 -8.6 16.6
02:00 1016 30 845 24.95 6.9 44.4 32 -8.8 16.1
02:05 1016 30 845 24.95 7.1 44.7 31 -9.1 15.6
02:10 1016 30 845 24.95 7.2 45 30 -9.1 15.6
02:15 1016 30 845 24.95 6.8 44.3 29 -10.1 13.9
02:20 1016 30 845 24.95 7.1 44.7 30 -9.5 14.9
02:25 1016 30 845 24.95 7 44.6 30 -9.3 15.3
02:30 1016 30 845 24.95 7.1 44.7 31 -9 15.7
02:35 1016 30 845 24.95 6.1 43 33 -8.8 16.1
02:40 1016 30 845 24.95 4.9 40.7 36 -8.9 15.9
02:45 1016 30 845 24.95 4.5 40.2 36 -9.4 15.1
02:50 1016 30 845 24.95 4.6 40.3 33 -10.2 13.6
02:55 1016 30 845 24.95 5.5 42 31 -10.3 13.5
03:00 1016 30 845 24.95 6 42.8 31 -9.8 14.4
03:05 1016 30 845 24.95 6.1 43.1 31 -9.6 14.8
03:10 1016 30 845 24.95 6 42.8 30 -10.1 13.8
03:15 1016 30 845 24.95 6.5 43.6 30 -10 14
03:20 1016 30 845 24.95 6.4 43.5 31 -9.7 14.6
03:25 1016 30 845 24.95 6 42.8 32 -9.4 15
03:30 1016 30 845 24.95 6 42.9 31 -9.7 14.5
03:35 1016 30 845 24.95 6.1 43 32 -9.4 15.1
03:40 1016 30 845 24.95 6 42.7 33 -9.3 15.2
03:45 1016 30 845 24.95 5.8 42.4 32 -9.5 14.9
03:50 1016 30 845 24.95 6.2 43.2 30 -10.2 13.6
03:55 1016 30 845 24.95 6.1 43 31 -9.6 14.7
04:00 1016 30 845 24.95 6 42.8 31 -9.8 14.3
04:05 1016 30 845 24.95 6 42.8 31 -9.7 14.5
04:10 1016 30 845 24.95 6 42.7 32 -9.4 15.1
04:15 1016 30 845 24.95 6 42.8 32 -9.3 15.2
04:20 1016 30 845 24.95 6.1 42.9 31 -9.7 14.5
04:25 1016 30 845 24.95 6.1 42.9 28 -11.1 12.1
04:30 1016 30 845 24.95 5.9 42.7 29 -10.7 12.7
04:35 1016 30 845 24.95 5.7 42.2 29 -10.8 12.5
04:40 1016 30 845 24.95 5.2 41.4 32 -10.1 13.8
04:45 1016 30 845 24.95 5 41 33 -10.1 13.9
04:50 1016 30 845 24.95 4.8 40.7 32 -10.4 13.4
04:55 1016 30 845 24.95 5.1 41.2 31 -10.7 12.8
05:00 1016 30 845 24.95 5.4 41.8 34 -9.4 15.1
05:05 1016 30 845 24.95 5.8 42.5 32 -9.7 14.6
05:10 1016 30 845 24.95 5.9 42.6 30 -10.6 13
05:15 1016 30 845 24.95 5.7 42.3 31 -10.3 13.5
05:20 1016 30 845 24.95 4.7 40.5 35 -9.6 14.6
05:25 1016 30 845 24.95 3.8 38.9 35 -10.3 13.4
05:30 1016 30 845 24.95 3.9 38.9 34 -10.6 12.9
05:35 1016 30 845 24.95 3.9 39.1 35 -10.1 13.7
05:40 1016 30 845 24.95 4 39.1 35 -10.1 13.8
05:45 1016 30 845 24.95 4.3 39.8 33 -10.4 13.3
05:50 1016 30 845 24.95 5 40.9 32 -10.3 13.4
05:55 1016 30 845 24.95 5 40.9 31 -10.8 12.6
06:00 1016 30 845 24.95 5.3 41.5 31 -10.5 13.2
06:05 1016 30 845 24.95 4.4 39.9 34 -10 13.9
06:10 1016 30 845 24.95 4 39.2 34 -10.3 13.4
06:15 1016 30 845 24.95 4.6 40.4 33 -10.3 13.5
06:20 1016 30 845 24.95 4.7 40.4 33 -10.3 13.4
06:25 1016 30 845 24.95 4.6 40.3 34 -10.1 13.9
06:30 1016 30 845 24.95 4.3 39.8 34 -10.1 13.8
06:35 1016 30 845 24.95 4.2 39.5 35 -10 14
06:40 1016 30 845 24.95 4.1 39.3 34 -10.3 13.5
06:45 1016 30 845 24.95 4.1 39.5 33 -10.6 12.9
06:50 1016 30 845 24.95 4.5 40 33 -10.3 13.4
06:55 1016 30 845 24.95 4.3 39.7 35 -10 14.1
07:00 1016 30 845 24.95 4.2 39.5 35 -10 13.9
07:05 1016 30 845 24.95 4.4 39.9 35 -9.9 14.2
07:10 1016 30 845 24.95 4.7 40.5 34 -9.9 14.2
07:15 1016 30 845 24.95 4.7 40.4 35 -9.4 15
07:20 1016 30 845 24.95 4.7 40.4 33 -10.3 13.5
07:25 1016 30 845 24.95 5 41 33 -10.1 13.9
07:30 1016 30 845 24.95 4.6 40.3 33 -10.2 13.6
07:35 1016 30 845 24.95 4.5 40 36 -9.4 15.1
07:40 1016 30 845 24.95 4 39.2 37 -9.3 15.2
07:45 1016 30 845 24.95 4.2 39.6 32 -11 12.2
07:50 1016 30 845 24.95 5.3 41.5 32 -10 14
07:55 1016 30 845 24.95 4.5 40.1 34 -10.1 13.9
08:00 1016 30 845 24.95 5 40.9 33 -10.2 13.7
08:05 1016 30 845 24.95 5 41 35 -9.2 15.4
08:10 1016 30 845 24.95 5.2 41.3 32 -10.2 13.6
08:15 1016 30 845 24.95 5 41 36 -9 15.8
08:20 1016 30 845 24.95 4.4 39.9 37 -9.2 15.5
08:25 1016 30 846 24.98 3.8 38.9 39 -8.8 16.1
08:30 1016 30 846 24.98 3.4 38.1 41 -8.7 16.4
08:35 1016 30 845 24.95 3.5 38.3 39 -9.3 15.3
08:40 1016 30 845 24.95 4.3 39.7 37 -9.2 15.5
08:45 1016 30 845 24.95 5.1 41.2 34 -9.7 14.6
08:50 1016 30 845 24.95 5.6 42 34 -9 15.8
08:55 1016 30 845 24.95 5.2 41.4 35 -8.9 16
09:00 1016 30 846 24.98 5.2 41.4 34 -9.3 15.2
09:05 1016 30 846 24.98 5.5 42 34 -9.2 15.4
09:10 1016 30 846 24.98 5.4 41.8 34 -9.1 15.7
09:15 1016 30 846 24.98 5.4 41.7 35 -8.9 15.9
09:20 1016 30 846 24.98 5.4 41.7 36 -8.7 16.4
09:25 1016 30 846 24.98 5.5 42 37 -8 17.6
09:30 1016 30 846 24.98 5.7 42.2 37 -7.9 17.9
09:35 1016 30 846 24.98 5.7 42.2 38 -7.5 18.6
09:40 1016 30 846 24.98 5.5 42 40 -7.1 19.3
09:45 1017 30.03 846 24.98 5.8 42.4 38 -7.5 18.5
09:50 1017 30.03 846 24.98 6.2 43.1 38 -7.1 19.2
09:55 1017 30.03 846 24.98 6.3 43.3 36 -7.8 17.9
10:00 1017 30.03 846 24.98 6.9 44.4 36 -7.3 18.9
10:05 1017 30.03 846 24.98 7.2 44.9 36 -7 19.4
10:10 1017 30.03 846 24.98 7.2 45 36 -7 19.4
10:15 1017 30.03 846 24.98 7.4 45.2 33 -7.7 18.1
10:20 1017 30.03 846 24.98 7.6 45.8 35 -6.7 19.9
10:25 1017 30.03 846 24.98 7.8 46 36 -6.3 20.6
10:30 1017 30.03 846 24.98 7.9 46.3 34 -6.9 19.7
10:35 1017 30.03 846 24.98 7.8 46 35 -6.8 19.7
10:40 1017 30.03 846 24.98 7.7 45.8 34 -7.2 19
10:45 1017 30.03 846 24.98 8 46.4 34 -6.9 19.6
10:50 1017 30.03 846 24.98 8.8 47.9 34 -6.1 21
10:55 1017 30.03 846 24.98 9 48.1 36 -5.2 22.6
11:00 1017 30.03 846 24.98 9.8 49.6 34 -5.2 22.7
11:05 1017 30.03 846 24.98 10.3 50.5 33 -5.1 22.8
11:10 1017 30.03 846 24.98 10.2 50.3 33 -5.2 22.7
11:15 1017 30.03 846 24.98 11.2 52.1 31 -5.1 22.8
11:20 1017 30.03 846 24.98 12.2 54 29 -5.1 22.9
11:25 1017 30.03 846 24.98 12.7 54.8 29 -5 23
11:30 1017 30.03 846 24.98 12.9 55.2 28 -5 23.1
11:35 1017 30.03 846 24.98 13.6 56.5 26 -5.7 21.8
11:40 1017 30.03 846 24.98 14.4 57.8 26 -5.1 22.8
11:45 1017 30.03 846 24.98 14.4 57.9 26 -4.9 23.2
11:50 1017 30.03 846 24.98 14.5 58.1 25 -5.2 22.7
11:55 1017 30.03 846 24.98 14.7 58.4 25 -4.8 23.3
12:00 1017 30.03 846 24.98 15.3 59.6 25 -4.5 23.9
12:05 1017 30.03 846 24.98 15.6 60.1 22 -5.7 21.7
12:10 1017 30.03 846 24.98 14.5 58 25 -5.4 22.2
12:15 1017 30.03 846 24.98 15.1 59.3 25 -4.8 23.3
12:20 1017 30.03 846 24.98 15.6 60.1 24 -4.9 23.2
12:25 1017 30.03 846 24.98 15.8 60.4 24 -4.6 23.8
12:30 1017 30.03 846 24.98 16 60.8 24 -4.5 24
12:35 1017 30.03 846 24.98 15.8 60.5 24 -4.7 23.5
12:40 1016 30 846 24.98 15.9 60.7 24 -4.8 23.4
12:45 1016 30 846 24.98 16.1 61 24 -4.3 24.2
12:50 1016 30 846 24.98 16.2 61.2 24 -4.5 23.9
12:55 1016 30 846 24.98 16.2 61.2 23 -4.8 23.3
13:00 1017 30.03 846 24.98 16.6 61.8 24 -3.7 25.3
13:05 1017 30.03 846 24.98 16.7 62 24 -3.8 25.2
13:10 1016 30 846 24.98 16.7 62.1 23 -4.5 23.9
13:15 1016 30 846 24.98 16.9 62.5 22 -4.9 23.2
13:20 1016 30 846 24.98 16.9 62.3 22 -5.2 22.7
13:25 1016 30 846 24.98 16.8 62.2 22 -5.2 22.6
13:30 1016 30 846 24.98 16.7 62.1 22 -4.9 23.1
13:35 1016 30 846 24.98 16.5 61.8 23 -4.5 23.9
13:40 1016 30 846 24.98 16.7 62.1 23 -4.5 23.8
13:45 1016 30 846 24.98 16.9 62.3 23 -4.3 24.3
13:50 1016 30 846 24.98 16.9 62.4 23 -4.2 24.5
13:55 1016 30 846 24.98 16.9 62.5 23 -4.3 24.3
14:00 1016 30 846 24.98 17.2 62.9 21 -4.9 23.1
14:05 1016 30 846 24.98 17.2 63 22 -4.8 23.4
14:10 1016 30 845 24.95 17 62.5 21 -5.2 22.6
14:15 1016 30 846 24.98 17.1 62.7 21 -5 22.9
14:20 1016 30 846 24.98 17.4 63.4 21 -5.1 22.8
14:25 1016 30 846 24.98 17.6 63.7 21 -4.8 23.4
14:30 1016 30 846 24.98 17.3 63.2 22 -4.8 23.4
14:35 1016 30 846 24.98 17.1 62.8 21 -5.4 22.4
14:40 1016 30 846 24.98 17.1 62.8 21 -5.1 22.8
14:45 1016 30 846 24.98 17.2 62.9 21 -5 23
14:50 1016 30 846 24.98 17.2 63 22 -4.8 23.4
14:55 1016 30 846 24.98 17.3 63.1 22 -4.7 23.5
15:00 1017 30.03 846 24.98 17 62.5 22 -4.8 23.4
15:05 1017 30.03 846 24.98 17 62.6 22 -4.8 23.3
15:10 1017 30.03 846 24.98 17.2 62.9 21 -5 23
15:15 1017 30.03 846 24.98 17.2 62.9 22 -4.9 23.1
15:20 1017 30.03 846 24.98 17.2 63 21 -5.1 22.9
15:25 1017 30.03 846 24.98 17.2 62.9 22 -4.9 23.2
15:30 1017 30.03 846 24.98 17.2 63 21 -5.2 22.7
15:35 1017 30.03 846 24.98 16.9 62.5 22 -5.1 22.8
15:40 1017 30.03 846 24.98 16.6 61.9 22 -5.2 22.6
15:45 1017 30.03 846 24.98 16.6 62 21 -5.4 22.2
15:50 1017 30.03 846 24.98 17 62.5 21 -5.3 22.4
15:55 1017 30.03 846 24.98 16.9 62.3 21 -5.4 22.3
16:00 1017 30.03 846 24.98 16.7 62.1 21 -5.8 21.5
16:05 1017 30.03 846 24.98 16.6 61.9 21 -5.8 21.5
16:10 1017 30.03 846 24.98 16.5 61.8 20 -6.2 20.9
16:15 1017 30.03 846 24.98 16.5 61.7 21 -5.9 21.3
16:20 1017 30.03 846 24.98 16.2 61.1 21 -5.8 21.6
16:25 1017 30.03 846 24.98 15.8 60.4 22 -5.7 21.7
16:30 1017 30.03 847 25.01 15.5 59.9 23 -5.7 21.8
16:35 1017 30.03 847 25.01 15.3 59.5 23 -5.6 21.9
16:40 1017 30.03 847 25.01 15.1 59.2 23 -5.6 22
16:45 1017 30.03 847 25.01 15.1 59.2 24 -5.5 22.1
16:50 1017 30.03 847 25.01 15 59 24 -5.1 22.8
16:55 1017 30.03 847 25.01 14.8 58.7 25 -4.7 23.6
17:00 1018 30.06 847 25.01 14.7 58.5 25 -5.1 22.8
17:05 1018 30.06 847 25.01 14.6 58.2 26 -4.8 23.3
17:10 1018 30.06 847 25.01 14.5 58 25 -5 22.9
17:15 1018 30.06 847 25.01 14.4 57.9 26 -4.9 23.2
17:20 1018 30.06 847 25.01 14.2 57.6 26 -4.8 23.4
17:25 1018 30.06 847 25.01 14 57.3 27 -4.5 23.9
17:30 1018 30.06 847 25.01 13.9 57 27 -4.7 23.5
17:35 1018 30.06 847 25.01 13.9 57 27 -4.5 23.8
17:40 1018 30.06 847 25.01 13.7 56.7 28 -4.6 23.8
17:45 1018 30.06 847 25.01 13.6 56.5 27 -4.8 23.4
17:50 1018 30.06 848 25.04 13.5 56.3 28 -4.5 23.9
17:55 1018 30.06 848 25.04 13.4 56 28 -4.5 23.9
18:00 1018 30.06 848 25.04 13.2 55.8 29 -4.2 24.4
18:05 1019 30.09 848 25.04 13.2 55.7 29 -4.6 23.7
18:10 1019 30.09 848 25.04 12.9 55.2 29 -4.4 24
18:15 1019 30.09 848 25.04 12.7 54.9 30 -4.5 23.8
18:20 1019 30.09 848 25.04 12.6 54.7 30 -4.3 24.3
18:25 1019 30.09 848 25.04 12.5 54.4 31 -4.3 24.3
18:30 1019 30.09 848 25.04 12.4 54.2 31 -4.2 24.5
18:35 1019 30.09 848 25.04 12.2 53.9 32 -4 24.8
18:40 1019 30.09 848 25.04 11.9 53.5 33 -4 24.9
18:45 1019 30.09 848 25.04 11.7 53.1 33 -4 24.8
18:50 1019 30.09 848 25.04 11.6 52.8 33 -4.1 24.7
18:55 1019 30.09 848 25.04 11.5 52.7 33 -4.1 24.5
19:00 1019 30.09 848 25.04 11.6 52.8 33 -4.3 24.3
19:05 1019 30.09 848 25.04 11.6 52.9 32 -4.4 24
19:10 1019 30.09 848 25.04 11.6 53 32 -4.6 23.6
19:15 1019 30.09 848 25.04 11.8 53.3 31 -4.6 23.8
19:20 1019 30.09 849 25.07 11.9 53.4 32 -4.3 24.2
19:25 1019 30.09 849 25.07 11.8 53.3 31 -4.7 23.5
19:30 1019 30.09 849 25.07 11.9 53.4 30 -5 23
19:35 1020 30.12 849 25.07 11.9 53.3 30 -4.9 23.1
19:40 1020 30.12 849 25.07 11.8 53.2 30 -5.1 22.7
19:45 1020 30.12 849 25.07 11.7 53 30 -5.1 22.9
19:50 1020 30.12 849 25.07 11.5 52.8 31 -5 23
19:55 1020 30.12 849 25.07 11.4 52.5 31 -5.1 22.8
20:00 1020 30.12 849 25.07 11.3 52.3 31 -5.2 22.7
20:05 1020 30.12 849 25.07 11.2 52.2 31 -5.2 22.7
20:10 1020 30.12 849 25.07 11.2 52.1 31 -5.2 22.6
20:15 1020 30.12 849 25.07 11.2 52.1 31 -5.2 22.7
20:20 1020 30.12 849 25.07 11 51.8 32 -5 23
20:25 1020 30.12 849 25.07 10.9 51.5 33 -4.9 23.1
20:30 1020 30.12 849 25.07 10.5 50.9 33 -4.9 23.2
20:35 1020 30.12 849 25.07 10.3 50.5 34 -5 23.1
20:40 1020 30.12 849 25.07 10.1 50.2 34 -4.9 23.2
20:45 1020 30.12 849 25.07 10 50.1 35 -4.8 23.3
20:50 1020 30.12 850 25.1 10 49.9 35 -4.8 23.4
20:55 1020 30.12 850 25.1 10 50 35 -4.7 23.6
21:00 1020 30.12 850 25.1 9.8 49.6 36 -4.4 24.1
21:05 1020 30.12 850 25.1 9.1 48.5 38 -4.2 24.4
21:10 1020 30.12 850 25.1 8.9 48.1 39 -4.2 24.4
21:15 1020 30.12 850 25.1 8.9 48.1 39 -4.3 24.2
21:20 1020 30.12 850 25.1 9 48.2 39 -4.1 24.6
21:25 1021 30.15 850 25.1 8.8 47.8 40 -4 24.7
21:30 1021 30.15 850 25.1 8.4 47.2 42 -3.8 25.2
21:35 1021 30.15 850 25.1 8.2 46.8 42 -4 24.9
21:40 1021 30.15 850 25.1 8.3 46.9 42 -4 24.8
21:45 1021 30.15 850 25.1 8.3 46.9 41 -4.2 24.4
21:50 1021 30.15 850 25.1 8.3 47 41 -4.1 24.6
21:55 1021 30.15 850 25.1 8.4 47 41 -4 24.7
22:00 1021 30.15 850 25.1 8.4 47 41 -4 24.8
22:05 1021 30.15 850 25.1 8.1 46.5 43 -3.8 25.2
22:10 1021 30.15 850 25.1 7.7 45.9 43 -4.1 24.7
22:15 1021 30.15 850 25.1 7.8 46.1 43 -4 24.7
22:20 1021 30.15 850 25.1 7.5 45.4 46 -3.4 25.9
22:25 1021 30.15 851 25.13 6.5 43.7 47 -3.9 25.1
22:30 1021 30.15 851 25.13 6.2 43.1 49 -3.8 25.2
22:35 1022 30.18 851 25.13 6 42.9 49 -3.9 24.9
22:40 1022 30.18 851 25.13 6.4 43.5 47 -4.1 24.7
22:45 1022 30.18 851 25.13 6.6 43.9 49 -3.2 26.2
22:50 1022 30.18 851 25.13 6.5 43.6 49 -3.5 25.7
22:55 1022 30.18 851 25.13 6.1 43.1 49 -3.8 25.2
23:00 1022 30.18 851 25.13 5.7 42.2 50 -3.8 25.1
23:05 1022 30.18 851 25.13 5.6 42.1 51 -3.6 25.5
23:10 1022 30.18 851 25.13 5.7 42.3 52 -3.5 25.7
23:15 1022 30.18 851 25.13 5.8 42.5 51 -3.6 25.5
23:20 1022 30.18 851 25.13 5.8 42.5 51 -3.7 25.4
23:25 1022 30.18 851 25.13 5.6 42 51 -3.8 25.1
23:30 1022 30.18 851 25.13 5.6 42.2 50 -4 24.8
23:35 1022 30.18 851 25.13 5.7 42.2 51 -3.8 25.2
23:40 1022 30.18 851 25.13 5.3 41.5 52 -3.7 25.3
23:45 1022 30.18 851 25.13 5 41 53 -3.8 25.2
23:50 1022 30.18 851 25.13 4.8 40.7 54 -3.8 25.2
23:55 1022 30.18 851 25.13 5 41 53 -3.9 24.9
24:00 1022 30.18 851 25.13 5.1 41.2 52 -3.8 25.1